HAL36 KPHX-PHNL

Flight info

Callsign HAL36
Flight time N/A
Altitude 38000
Route KEENS3 HRRBR CURIV J212 DECAS LAX DINTY R576 DIALO/N0480F400 R576 DENNS INOYI1
Aircraft B789/H-SDE1E2E3FGHIJ2J3J4J5M1RWXY/LB1D1

Departure

Time 2026-05-05 22:32
Airport Phoenix Sky Harbor International Airport (KPHX)

Arrival

Time N/A
Airport Daniel K. Inouye International Airport (PHNL)
Time Latitude Longitude Altitude Speed Heading
2026-05-05 22:17 33.43790 -112.00953 1130 ft 0 kts 99°
2026-05-05 22:20 33.43791 -112.00961 1130 ft 3 kts 96°
2026-05-05 22:21 33.43791 -112.00985 1131 ft 3 kts 76°
2026-05-05 22:21 33.43784 -112.01008 1132 ft 3 kts 55°
2026-05-05 22:21 33.43777 -112.01023 1134 ft 0 kts 359°
2026-05-05 22:24 33.43780 -112.01023 1133 ft 1 kts 359°
2026-05-05 22:24 33.43795 -112.01023 1134 ft 3 kts
2026-05-05 22:24 33.43826 -112.01022 1132 ft 6 kts 360°
2026-05-05 22:24 33.43874 -112.01017 1132 ft 8 kts 18°
2026-05-05 22:25 33.43901 -112.00963 1132 ft 8 kts 83°
2026-05-05 22:25 33.43902 -112.00880 1130 ft 11 kts 90°
2026-05-05 22:25 33.43900 -112.00783 1129 ft 12 kts 90°
2026-05-05 22:25 33.43901 -112.00678 1129 ft 13 kts 90°
2026-05-05 22:26 33.43900 -112.00567 1129 ft 14 kts 90°
2026-05-05 22:26 33.43903 -112.00450 1129 ft 14 kts 88°
2026-05-05 22:26 33.43860 -112.00379 1133 ft 8 kts 167°
2026-05-05 22:26 33.43812 -112.00380 1132 ft 7 kts 180°
2026-05-05 22:27 33.43762 -112.00379 1132 ft 8 kts 180°
2026-05-05 22:27 33.43704 -112.00379 1134 ft 9 kts 181°
2026-05-05 22:27 33.43643 -112.00380 1132 ft 9 kts 180°
2026-05-05 22:27 33.43573 -112.00381 1132 ft 11 kts 180°
2026-05-05 22:28 33.43491 -112.00382 1134 ft 13 kts 181°
2026-05-05 22:28 33.43397 -112.00381 1132 ft 14 kts 179°
2026-05-05 22:28 33.43300 -112.00380 1135 ft 14 kts 180°
2026-05-05 22:28 33.43217 -112.00348 1132 ft 12 kts 123°
2026-05-05 22:29 33.43213 -112.00267 1134 ft 11 kts 89°
2026-05-05 22:29 33.43214 -112.00160 1134 ft 14 kts 89°
2026-05-05 22:29 33.43213 -112.00038 1133 ft 15 kts 90°
2026-05-05 22:29 33.43214 -111.99913 1133 ft 15 kts 89°
2026-05-05 22:30 33.43214 -111.99783 1133 ft 16 kts 90°
2026-05-05 22:30 33.43214 -111.99655 1133 ft 16 kts 90°
2026-05-05 22:30 33.43213 -111.99523 1132 ft 16 kts 90°
2026-05-05 22:30 33.43211 -111.99394 1132 ft 15 kts 99°
2026-05-05 22:31 33.43159 -111.99345 1132 ft 8 kts 177°
2026-05-05 22:31 33.43121 -111.99356 1131 ft 3 kts 214°
2026-05-05 22:31 33.43108 -111.99381 1133 ft 6 kts 240°
2026-05-05 22:31 33.43103 -111.99440 1133 ft 11 kts 269°
2026-05-05 22:32 33.43104 -111.99751 1129 ft 72 kts 270°
2026-05-05 22:32 33.43105 -112.00643 1131 ft 139 kts 270°
2026-05-05 22:32 33.43119 -112.01989 1409 ft 177 kts 276°
2026-05-05 22:32 33.43044 -112.03440 2455 ft 162 kts 254°
2026-05-05 22:33 33.42821 -112.04792 3244 ft 179 kts 261°
2026-05-05 22:33 33.42471 -112.06330 3676 ft 205 kts 249°
2026-05-05 22:33 33.41934 -112.08038 4160 ft 232 kts 249°
2026-05-05 22:33 33.41415 -112.09994 4828 ft 254 kts 252°
2026-05-05 22:34 33.40939 -112.12015 6088 ft 254 kts 253°
2026-05-05 22:34 33.40448 -112.14047 7120 ft 258 kts 252°
2026-05-05 22:34 33.39935 -112.16113 8241 ft 261 kts 252°
2026-05-05 22:34 33.39418 -112.18194 9365 ft 263 kts 252°
2026-05-05 22:35 33.39185 -112.20385 10334 ft 272 kts 271°
2026-05-05 22:35 33.39451 -112.22747 10787 ft 300 kts 277°
2026-05-05 22:35 33.39861 -112.25316 11146 ft 328 kts 278°
2026-05-05 22:35 33.40299 -112.28022 12099 ft 331 kts 277°
2026-05-05 22:36 33.40703 -112.30755 13150 ft 336 kts 276°
2026-05-05 22:36 33.41101 -112.33531 14084 ft 340 kts 277°
2026-05-05 22:36 33.41504 -112.36260 14989 ft 343 kts 277°
2026-05-05 22:36 33.41937 -112.39147 15953 ft 345 kts 277°
2026-05-05 22:37 33.42358 -112.41987 16875 ft 348 kts 277°
2026-05-05 22:37 33.42774 -112.44821 17763 ft 352 kts 277°
2026-05-05 22:37 33.43200 -112.47715 18582 ft 354 kts 277°
2026-05-05 22:37 33.43629 -112.50625 19394 ft 356 kts 276°
2026-05-05 22:38 33.44058 -112.53549 20177 ft 357 kts 276°
2026-05-05 22:38 33.44488 -112.56488 20944 ft 359 kts 275°
2026-05-05 22:38 33.44898 -112.59441 21718 ft 360 kts 274°
2026-05-05 22:38 33.45308 -112.62415 22484 ft 363 kts 274°
2026-05-05 22:39 33.45766 -112.65405 23228 ft 366 kts 274°
2026-05-05 22:39 33.46237 -112.68407 23871 ft 368 kts 274°
2026-05-05 22:39 33.46694 -112.71435 24453 ft 370 kts 273°
2026-05-05 22:39 33.47144 -112.74475 25028 ft 372 kts 273°
2026-05-05 22:40 33.47603 -112.77537 25596 ft 374 kts 273°
2026-05-05 22:40 33.48068 -112.80616 26156 ft 377 kts 272°
2026-05-05 22:40 33.48533 -112.83718 26697 ft 379 kts 272°
2026-05-05 22:40 33.48992 -112.86800 27225 ft 382 kts 272°
2026-05-05 22:41 33.49460 -112.89940 27762 ft 384 kts 272°
2026-05-05 22:41 33.49930 -112.93093 28274 ft 387 kts 272°
2026-05-05 22:41 33.50405 -112.96283 28769 ft 389 kts 271°
2026-05-05 22:41 33.50880 -112.99490 29239 ft 392 kts 271°
2026-05-05 22:42 33.51359 -113.02721 29716 ft 395 kts 271°
2026-05-05 22:42 33.51841 -113.05979 30152 ft 398 kts 271°
2026-05-05 22:42 33.52323 -113.09247 30547 ft 399 kts 271°
2026-05-05 22:42 33.52807 -113.12533 30931 ft 401 kts 271°
2026-05-05 22:43 33.53293 -113.15838 31327 ft 403 kts 271°
2026-05-05 22:43 33.53779 -113.19150 31722 ft 405 kts 271°
2026-05-05 22:43 33.54267 -113.22486 32092 ft 407 kts 271°
2026-05-05 22:43 33.54750 -113.25788 32455 ft 409 kts 271°
2026-05-05 22:44 33.55241 -113.29152 32818 ft 411 kts 271°
2026-05-05 22:44 33.55732 -113.32529 33169 ft 413 kts 271°
2026-05-05 22:44 33.56226 -113.35931 33495 ft 414 kts 271°
2026-05-05 22:44 33.56721 -113.39342 33816 ft 416 kts 271°
2026-05-05 22:45 33.57218 -113.42773 34120 ft 418 kts 271°
2026-05-05 22:45 33.57715 -113.46203 34528 ft 417 kts 271°
2026-05-05 22:45 33.58209 -113.49623 34921 ft 415 kts 271°
2026-05-05 22:45 33.58783 -113.53023 35312 ft 417 kts 274°
2026-05-05 22:46 33.59422 -113.56411 35695 ft 416 kts 273°
2026-05-05 22:46 33.60034 -113.59745 36071 ft 414 kts 273°
2026-05-05 22:46 33.60657 -113.63110 36439 ft 413 kts 273°
2026-05-05 22:46 33.61286 -113.66469 36838 ft 411 kts 273°
2026-05-05 22:47 33.61908 -113.69802 37232 ft 409 kts 273°
2026-05-05 22:47 33.62523 -113.73131 37596 ft 408 kts 273°
2026-05-05 22:47 33.63137 -113.76461 37764 ft 410 kts 273°
2026-05-05 22:47 33.63756 -113.79820 37954 ft 413 kts 273°
2026-05-05 22:48 33.64380 -113.83207 37938 ft 418 kts 273°
2026-05-05 22:48 33.65639 -113.90004 37887 ft 415 kts 273°
2026-05-05 22:49 33.66877 -113.96761 37895 ft 414 kts 273°
2026-05-05 22:49 33.68119 -114.03523 37863 ft 414 kts 273°
2026-05-05 22:50 33.69346 -114.10266 37878 ft 414 kts 272°
2026-05-05 22:50 33.70570 -114.16988 37868 ft 414 kts 272°
2026-05-05 22:51 33.71795 -114.23743 37872 ft 414 kts 272°
2026-05-05 22:51 33.73017 -114.30506 37862 ft 415 kts 272°
2026-05-05 22:52 33.74239 -114.37279 37884 ft 414 kts 272°
2026-05-05 22:52 33.75453 -114.44050 37880 ft 415 kts 272°
2026-05-05 22:53 33.76666 -114.50823 37884 ft 414 kts 272°
2026-05-05 22:53 33.77488 -114.57588 37890 ft 405 kts 265°
2026-05-05 22:54 33.77889 -114.64320 37895 ft 405 kts 265°
2026-05-05 22:54 33.78213 -114.69940 37897 ft 406 kts 265°
2026-05-05 22:55 33.78667 -114.77803 37897 ft 404 kts 265°
2026-05-05 22:55 33.79049 -114.84539 37885 ft 404 kts 265°
2026-05-05 22:56 33.79368 -114.90184 37889 ft 403 kts 265°
2026-05-05 22:56 33.79742 -114.96884 37888 ft 404 kts 265°
2026-05-05 22:57 33.80116 -115.03622 37877 ft 403 kts 264°
2026-05-05 22:57 33.80484 -115.10356 37880 ft 404 kts 264°
2026-05-05 22:58 33.80851 -115.17090 37882 ft 402 kts 264°
2026-05-05 22:58 33.81210 -115.23793 37887 ft 401 kts 264°
2026-05-05 22:59 33.81567 -115.30490 37885 ft 401 kts 264°
2026-05-05 22:59 33.81917 -115.37148 37891 ft 401 kts 264°
2026-05-05 23:00 33.82439 -115.47195 37889 ft 400 kts 263°
2026-05-05 23:00 33.82758 -115.53885 37880 ft 400 kts 263°
2026-05-05 23:01 33.83080 -115.60548 37905 ft 397 kts 263°
2026-05-05 23:01 33.83394 -115.67213 37902 ft 399 kts 263°
2026-05-05 23:02 33.83706 -115.73838 37890 ft 399 kts 263°
2026-05-05 23:02 33.84014 -115.80502 37891 ft 398 kts 263°
2026-05-05 23:03 33.84318 -115.87149 37896 ft 399 kts 262°
2026-05-05 23:03 33.84620 -115.93812 37897 ft 397 kts 262°
2026-05-05 23:04 33.84916 -116.00416 37897 ft 395 kts 262°
2026-05-05 23:04 33.85206 -116.07055 37903 ft 400 kts 262°
2026-05-05 23:05 33.85501 -116.13746 37904 ft 400 kts 262°
2026-05-05 23:05 33.85746 -116.19419 37891 ft 400 kts 262°
2026-05-05 23:06 33.86029 -116.26075 37921 ft 400 kts 262°
2026-05-05 23:06 33.86307 -116.32683 37921 ft 401 kts 262°
2026-05-05 23:07 33.86586 -116.39398 37922 ft 402 kts 262°
2026-05-05 23:07 33.86862 -116.46131 37916 ft 404 kts 262°
2026-05-05 23:08 33.87137 -116.52912 37920 ft 405 kts 262°
2026-05-05 23:08 33.87405 -116.59634 37911 ft 406 kts 262°
2026-05-05 23:09 33.87674 -116.66410 37943 ft 403 kts 262°
2026-05-05 23:09 33.87933 -116.73172 37915 ft 404 kts 263°
2026-05-05 23:10 33.88198 -116.79954 37975 ft 409 kts 262°
2026-05-05 23:10 33.88448 -116.86863 38010 ft 418 kts 263°
2026-05-05 23:11 33.88716 -116.93788 38017 ft 415 kts 263°
2026-05-05 23:11 33.88962 -117.00697 38022 ft 413 kts 263°
2026-05-05 23:12 33.89214 -117.07623 37985 ft 415 kts 263°
2026-05-05 23:12 33.89459 -117.14573 37997 ft 417 kts 263°
2026-05-05 23:13 33.89705 -117.21568 38000 ft 418 kts 263°
2026-05-05 23:13 33.89945 -117.28582 37999 ft 420 kts 263°
2026-05-05 23:14 33.90183 -117.35613 38001 ft 420 kts 263°
2026-05-05 23:14 33.90416 -117.42638 38013 ft 420 kts 263°
2026-05-05 23:15 33.90644 -117.49626 38019 ft 421 kts 263°
2026-05-05 23:15 33.90869 -117.56676 38029 ft 422 kts 263°
2026-05-05 23:16 33.91093 -117.63758 38029 ft 424 kts 264°
2026-05-05 23:16 33.91312 -117.70868 38024 ft 426 kts 264°
2026-05-05 23:17 33.91530 -117.78027 38036 ft 428 kts 264°
2026-05-05 23:17 33.91742 -117.85177 38025 ft 428 kts 264°
2026-05-05 23:18 33.91951 -117.92346 38024 ft 429 kts 264°
2026-05-05 23:18 33.92157 -117.99534 38030 ft 430 kts 264°
2026-05-05 23:19 33.92355 -118.06618 38030 ft 431 kts 264°
2026-05-05 23:19 33.92545 -118.13523 38024 ft 433 kts 264°
2026-05-05 23:20 33.92740 -118.20777 38043 ft 434 kts 265°
2026-05-05 23:20 33.92930 -118.28050 38040 ft 435 kts 265°
2026-05-05 23:21 33.93119 -118.35341 38040 ft 436 kts 265°
2026-05-05 23:21 33.93275 -118.42649 38039 ft 435 kts 262°
2026-05-05 23:22 33.92702 -118.49856 38040 ft 433 kts 258°
2026-05-05 23:22 33.92045 -118.57067 38047 ft 434 kts 258°
2026-05-05 23:23 33.91375 -118.64267 38036 ft 436 kts 259°
2026-05-05 23:23 33.90698 -118.71545 38038 ft 438 kts 259°
2026-05-05 23:24 33.90014 -118.78835 38032 ft 439 kts 259°
2026-05-05 23:24 33.89322 -118.86159 38022 ft 441 kts 259°
2026-05-05 23:25 33.88627 -118.93471 38030 ft 442 kts 259°
2026-05-05 23:25 33.87923 -119.00831 38023 ft 443 kts 260°
2026-05-05 23:26 33.87214 -119.08203 38025 ft 443 kts 260°
2026-05-05 23:26 33.86500 -119.15570 38030 ft 444 kts 260°
2026-05-05 23:27 33.85778 -119.22982 38029 ft 446 kts 260°
2026-05-05 23:27 33.85050 -119.30391 38029 ft 447 kts 261°
2026-05-05 23:28 33.84322 -119.37776 38028 ft 448 kts 261°
2026-05-05 23:28 33.83580 -119.45241 38026 ft 451 kts 261°
2026-05-05 23:29 33.83014 -119.50908 38025 ft 452 kts 261°
2026-05-05 23:29 33.82259 -119.58427 38025 ft 454 kts 261°
2026-05-05 23:30 33.81497 -119.65969 38027 ft 454 kts 261°
2026-05-05 23:30 33.80728 -119.73528 38028 ft 455 kts 261°
2026-05-05 23:31 33.79960 -119.81047 38030 ft 456 kts 262°
2026-05-05 23:31 33.79180 -119.88615 38038 ft 457 kts 262°
2026-05-05 23:32 33.78394 -119.96212 38042 ft 458 kts 262°
2026-05-05 23:32 33.77602 -120.03813 38042 ft 459 kts 262°
2026-05-05 23:33 33.76804 -120.11427 38044 ft 460 kts 262°
2026-05-05 23:33 33.75999 -120.19058 38054 ft 460 kts 262°
2026-05-05 23:34 33.75190 -120.26685 38056 ft 461 kts 262°
2026-05-05 23:34 33.74374 -120.34330 38055 ft 461 kts 262°
2026-05-05 23:35 33.73558 -120.41932 38054 ft 462 kts 262°
2026-05-05 23:35 33.72730 -120.49596 38066 ft 463 kts 262°
2026-05-05 23:36 33.71897 -120.57265 38064 ft 463 kts 262°
2026-05-05 23:36 33.71058 -120.64937 38064 ft 463 kts 262°
2026-05-05 23:37 33.70216 -120.72606 38069 ft 463 kts 262°
2026-05-05 23:37 33.69368 -120.80266 38067 ft 463 kts 262°
2026-05-05 23:38 33.68514 -120.87951 38064 ft 463 kts 262°
2026-05-05 23:38 33.67661 -120.95580 38066 ft 464 kts 262°
2026-05-05 23:39 33.66790 -121.03335 38060 ft 475 kts 266°
2026-05-05 23:39 33.65893 -121.11260 38072 ft 481 kts 265°
2026-05-05 23:40 33.64986 -121.19214 38072 ft 481 kts 265°
2026-05-05 23:40 33.64076 -121.27174 38065 ft 481 kts 265°
2026-05-05 23:41 33.63160 -121.35124 38069 ft 481 kts 265°
2026-05-05 23:41 33.62245 -121.43035 38073 ft 481 kts 265°
2026-05-05 23:42 33.61318 -121.50995 38077 ft 482 kts 265°
2026-05-05 23:42 33.60384 -121.58968 38078 ft 483 kts 265°
2026-05-05 23:43 33.59444 -121.66947 38078 ft 483 kts 265°
2026-05-05 23:43 33.58499 -121.74927 38077 ft 483 kts 265°
2026-05-05 23:44 33.57550 -121.82897 38081 ft 483 kts 265°
2026-05-05 23:44 33.56599 -121.90829 38086 ft 483 kts 265°
2026-05-05 23:45 33.55638 -121.98812 38090 ft 483 kts 265°
2026-05-05 23:45 33.54672 -122.06789 38087 ft 484 kts 265°
2026-05-05 23:46 33.53699 -122.14775 38085 ft 484 kts 265°
2026-05-05 23:46 33.52719 -122.22781 38089 ft 485 kts 265°
2026-05-05 23:47 33.51899 -122.29440 38095 ft 486 kts 265°
2026-05-05 23:47 33.50908 -122.37457 38095 ft 487 kts 265°
2026-05-05 23:48 33.49909 -122.45485 38094 ft 487 kts 265°
2026-05-05 23:48 33.48905 -122.53514 38097 ft 487 kts 265°
2026-05-05 23:49 33.47653 -122.61493 38113 ft 489 kts 259°
2026-05-05 23:49 33.46028 -122.69427 38102 ft 490 kts 259°
2026-05-05 23:50 33.44389 -122.77366 38110 ft 491 kts 259°
2026-05-05 23:50 33.42756 -122.85256 38103 ft 492 kts 259°
2026-05-05 23:51 33.41105 -122.93210 38103 ft 492 kts 259°
2026-05-05 23:51 33.39452 -123.01139 38102 ft 491 kts 259°
2026-05-05 23:52 33.37793 -123.09074 38099 ft 491 kts 259°
2026-05-05 23:52 33.36125 -123.17024 38107 ft 492 kts 259°
2026-05-05 23:53 33.34462 -123.24925 38114 ft 493 kts 259°
2026-05-05 23:53 33.32778 -123.32894 38111 ft 494 kts 259°
2026-05-05 23:54 33.31086 -123.40875 38101 ft 494 kts 259°
2026-05-05 23:54 33.29398 -123.48814 38109 ft 492 kts 259°
2026-05-05 23:55 33.27716 -123.56695 38107 ft 493 kts 259°
2026-05-05 23:55 33.26015 -123.64641 38105 ft 493 kts 259°
2026-05-05 23:56 33.24310 -123.72578 38116 ft 493 kts 259°
2026-05-05 23:56 33.22599 -123.80513 38115 ft 493 kts 259°
2026-05-05 23:57 33.20883 -123.88448 38110 ft 494 kts 258°
2026-05-05 23:57 33.19157 -123.96403 38108 ft 495 kts 258°
2026-05-05 23:58 33.17434 -124.04317 38109 ft 496 kts 258°
2026-05-05 23:58 33.15693 -124.12285 38118 ft 496 kts 258°
2026-05-05 23:59 33.13948 -124.20250 38117 ft 496 kts 258°
2026-05-05 23:59 33.12197 -124.28213 38116 ft 497 kts 258°
2026-05-06 00:00 33.10436 -124.36193 38116 ft 497 kts 258°
2026-05-06 00:00 33.08672 -124.44164 38122 ft 497 kts 258°
2026-05-06 00:01 33.06903 -124.52131 38121 ft 497 kts 258°
2026-05-06 00:01 33.05121 -124.60110 38117 ft 498 kts 258°
2026-05-06 00:02 33.03337 -124.68071 38117 ft 496 kts 258°
2026-05-06 00:02 33.01565 -124.75958 38118 ft 496 kts 258°
2026-05-06 00:03 32.99774 -124.83902 38124 ft 496 kts 258°
2026-05-06 00:03 32.97979 -124.91838 38125 ft 496 kts 258°
2026-05-06 00:04 32.96175 -124.99787 38121 ft 497 kts 258°
2026-05-06 00:04 32.94367 -125.07730 38126 ft 497 kts 258°
2026-05-06 00:05 32.91642 -125.19652 38125 ft 497 kts 257°
2026-05-06 00:06 32.89822 -125.27586 38140 ft 496 kts 257°
2026-05-06 00:06 32.87998 -125.35512 38129 ft 497 kts 257°
2026-05-06 00:07 32.86167 -125.43438 38143 ft 497 kts 257°
2026-05-06 00:07 32.84343 -125.51313 38143 ft 497 kts 257°
2026-05-06 00:08 32.82503 -125.59235 38142 ft 497 kts 257°
2026-05-06 00:08 32.80658 -125.67150 38139 ft 497 kts 257°
2026-05-06 00:09 32.78804 -125.75077 38133 ft 497 kts 257°
2026-05-06 00:09 32.76950 -125.82984 38135 ft 496 kts 257°
2026-05-06 00:10 32.75092 -125.90881 38137 ft 497 kts 257°
2026-05-06 00:10 32.73226 -125.98789 38136 ft 497 kts 257°
2026-05-06 00:11 32.71356 -126.06686 38146 ft 496 kts 257°
2026-05-06 00:11 32.69495 -126.14524 38143 ft 496 kts 257°
2026-05-06 00:12 32.67618 -126.22407 38142 ft 496 kts 256°
2026-05-06 00:12 32.65735 -126.30288 38147 ft 496 kts 256°
2026-05-06 00:13 32.63845 -126.38178 38142 ft 496 kts 256°
2026-05-06 00:13 32.61954 -126.46045 38145 ft 496 kts 256°
2026-05-06 00:14 32.60061 -126.53897 38147 ft 495 kts 256°
2026-05-06 00:14 32.58162 -126.61754 38151 ft 496 kts 256°
2026-05-06 00:15 32.56255 -126.69616 38154 ft 496 kts 256°
2026-05-06 00:15 32.54342 -126.77481 38152 ft 497 kts 256°
2026-05-06 00:16 32.52423 -126.85346 38154 ft 496 kts 256°
2026-05-06 00:16 32.50504 -126.93192 38155 ft 496 kts 256°
2026-05-06 00:17 32.48595 -127.00969 38155 ft 494 kts 256°
2026-05-06 00:17 32.46673 -127.08779 38154 ft 494 kts 256°
2026-05-06 00:18 32.44745 -127.16587 38158 ft 494 kts 256°
2026-05-06 00:18 32.42811 -127.24401 38158 ft 494 kts 256°
2026-05-06 00:19 32.40873 -127.32205 38158 ft 494 kts 256°
2026-05-06 00:19 32.38928 -127.40016 38163 ft 495 kts 256°
2026-05-06 00:20 32.36977 -127.47825 38160 ft 494 kts 256°
2026-05-06 00:20 32.35024 -127.55623 38165 ft 493 kts 256°
2026-05-06 00:21 32.33090 -127.63325 38161 ft 491 kts 256°
2026-05-06 00:21 32.31135 -127.71084 38161 ft 492 kts 256°
2026-05-06 00:22 32.29173 -127.78849 38165 ft 493 kts 256°
2026-05-06 00:22 32.27209 -127.86603 38163 ft 492 kts 256°
2026-05-06 00:23 32.25242 -127.94344 38165 ft 491 kts 256°
2026-05-06 00:23 32.23276 -128.02063 38169 ft 491 kts 256°
2026-05-06 00:24 32.21318 -128.09725 38176 ft 490 kts 256°
2026-05-06 00:24 32.19343 -128.17435 38170 ft 490 kts 256°
2026-05-06 00:25 32.17363 -128.25139 38172 ft 490 kts 256°
2026-05-06 00:25 32.15383 -128.32823 38173 ft 489 kts 256°
2026-05-06 00:26 32.13402 -128.40489 38174 ft 488 kts 256°
2026-05-06 00:26 32.11415 -128.48160 38175 ft 489 kts 256°
2026-05-06 00:27 32.09423 -128.55825 38180 ft 488 kts 256°
2026-05-06 00:27 32.07433 -128.63466 38173 ft 487 kts 256°
2026-05-06 00:28 32.05443 -128.71084 38176 ft 486 kts 256°
2026-05-06 00:28 32.03449 -128.78697 38174 ft 486 kts 256°
2026-05-06 00:29 32.01465 -128.86248 38177 ft 485 kts 256°